Weather in Chernoye

Russia / Perm Krai     59°40′33″N   56°56′37″E
temp.,
°C
wind,
m/s
gust,
m/s
humid.,
%
clouds,
%
prec.,
mm/h
press.,
hPa
HPBL,
m
1 march, mon
mon123:00−21e229020 0.0 101720
02:00−23ne118915 0.0 101820
05:00−23ne119013 0.0 101920
08:00−24ne11920 0.0 101920
11:00−17s01850 0.0 1018177
14:00−13sw23810 0.0 1016391
17:00−12ssw24880 0.0 1015387
20:00−16s399545 0.0 1013210
2 march, tue
tue223:00−16s4129452 0.0 1011376
02:00−15s51393100 0.0 1007447
05:00−15s51394100 0.1 1004473
08:00−15s51294100 0.8 1001554
11:00−13s51193100 1.5 1000600
14:00−12s51092100 0.6 997614
17:00−12ssw4993100 1.3 997576
20:00−12s3895100 0.6 996496
3 march, wed
wed323:00−12s3795100 1.1 996334
02:00−13sse2596100 0.1 996182
05:00−15sse2297100 0.2 99632
08:00−17sse129996 0.0 99520
11:00−12s129398 0.1 995192
14:00−8ssw1290100 0.1 994320
17:00−7ssw2494100 0.3 994309
20:00−7s3796100 0.7 994283
4 march, thu
thu423:00−7wnw41094100 1.2 995470
02:00−8wnw4895100 0.6 994492
05:00−11w3696100 0.9 995204
08:00−13wsw2597100 0.1 996163
11:00−11sw249496 0.2 995272
14:00−8sw3589100 0.2 995633
17:00−7sw3689100 0.3 995725
20:00−10s279699 0.2 995250
5 march, fri
fri523:00−11s369699 0.3 994195
02:00−10se3895100 0.1 991281
05:00−10se4994100 0.7 989428
08:00−9ese4995100 0.7 987426
11:00−7e2495100 1.9 986307
14:00−5nnw2491100 0.7 988548
17:00−6wnw5893100 1.1 993763
20:00−11wnw51293100 0.5 998582